This is the latest recevied weather packets stored in our database for station/object SQ9IWE-13. If no packets are shown the sender has not sent any weather packets the latest 10 day(s).
| Time | Temp. | Humidity | Pressure | Rain* | Wind** | Luminosity | Snow |
|---|---|---|---|---|---|---|---|
| 1777756801 | 12.78° C | 57% | 1020.1 hPa | - | - | - | - |
| 1777756200 | 12.78° C | 56% | 1020 hPa | - | - | - | - |
| 1777755600 | 13.33° C | 54% | 1020.1 hPa | - | - | - | - |
| 1777755000 | 13.89° C | 52% | 1020.1 hPa | - | - | - | - |
| 1777754400 | 14.44° C | 51% | 1020.2 hPa | - | - | - | - |
| 1777753800 | 14.44° C | 51% | 1020.2 hPa | - | - | - | - |
| 1777753200 | 14.44° C | 51% | 1020.3 hPa | - | - | - | - |
| 1777752600 | 14.44° C | 50% | 1020.3 hPa | - | - | - | - |
| 1777752000 | 15° C | 49% | 1020.4 hPa | - | - | - | - |
| 1777751400 | 15° C | 49% | 1020.5 hPa | - | - | - | - |
| 1777750200 | 16.11° C | 48% | 1020.5 hPa | - | - | - | - |
| 1777749600 | 16.11° C | 47% | 1020.5 hPa | - | - | - | - |
| 1777749000 | 16.11° C | 47% | 1020.5 hPa | - | - | - | - |
| 1777748400 | 16.67° C | 47% | 1020.3 hPa | - | - | - | - |
| 1777747801 | 16.67° C | 47% | 1020.4 hPa | - | - | - | - |
| 1777747201 | 17.22° C | 46% | 1020.4 hPa | - | - | - | - |
| 1777746601 | 17.22° C | 45% | 1020.3 hPa | - | - | - | - |
| 1777746001 | 17.78° C | 44% | 1020.3 hPa | - | - | - | - |
| 1777744801 | 18.33° C | 42% | 1020.3 hPa | - | - | - | - |
| 1777744201 | 18.89° C | 42% | 1020.2 hPa | - | - | - | - |
| 1777743601 | 18.89° C | 42% | 1020.2 hPa | - | - | - | - |
| 1777743001 | 19.44° C | 42% | 1020.1 hPa | - | - | - | - |
| 1777742401 | 20° C | 41% | 1020.1 hPa | - | - | - | - |
| 1777741801 | 20° C | 40% | 1020 hPa | - | - | - | - |
| 1777741201 | 20° C | 39% | 1020.1 hPa | - | - | - | - |
* Rain since midnight (hover to see other rain measurements)
** Current wind speed in m/s (hover to see current wind gust speed)